TimeBST,TemperatureF,Dew PointF,Humidity,Sea Level PressureIn,VisibilityMPH,Wind Direction,Wind SpeedMPH,Gust SpeedMPH,PrecipitationIn,Events,Conditions,WindDirDegrees,DateUTC
12:20 AM,46.4,41.0,81,30.12,-9999.0,West,9.2,-,N/A,,Clear,270,2013-05-21 23:20:00
12:50 AM,46.4,41.0,81,30.12,-9999.0,West,6.9,-,N/A,,Clear,270,2013-05-21 23:50:00
1:20 AM,46.4,41.0,81,30.12,-9999.0,West,8.1,-,N/A,,Clear,270,2013-05-22 00:20:00
1:50 AM,44.6,41.0,87,30.12,-9999.0,WSW,9.2,-,N/A,,Clear,250,2013-05-22 00:50:00
2:20 AM,44.6,41.0,87,30.12,6.2,WSW,6.9,-,N/A,,Scattered Clouds,240,2013-05-22 01:20:00
2:50 AM,44.6,41.0,87,30.12,6.2,SW,4.6,-,N/A,,Scattered Clouds,230,2013-05-22 01:50:00
3:20 AM,48.2,41.0,76,30.09,6.2,WNW,11.5,-,N/A,,Scattered Clouds,290,2013-05-22 02:20:00
3:50 AM,46.4,41.0,81,30.12,6.2,West,6.9,-,N/A,,Scattered Clouds,260,2013-05-22 02:50:00
4:20 AM,44.6,41.0,87,30.09,6.2,WSW,6.9,-,N/A,,Mostly Cloudy,240,2013-05-22 03:20:00
4:50 AM,44.6,41.0,87,30.09,6.2,WSW,8.1,-,N/A,,Scattered Clouds,240,2013-05-22 03:50:00
5:20 AM,48.2,41.0,76,30.09,6.2,West,8.1,-,N/A,,Mostly Cloudy,280,2013-05-22 04:20:00
5:50 AM,46.4,42.8,87,30.09,6.2,WNW,8.1,-,N/A,,Light Drizzle,290,2013-05-22 04:50:00
6:20 AM,46.4,42.8,87,30.09,6.2,West,8.1,-,N/A,,Mostly Cloudy,280,2013-05-22 05:20:00
6:50 AM,46.4,41.0,81,30.09,6.2,West,9.2,-,N/A,,Partly Cloudy,280,2013-05-22 05:50:00
7:20 AM,48.2,39.2,71,30.09,6.2,WNW,15.0,-,N/A,,Partly Cloudy,300,2013-05-22 06:20:00
7:50 AM,50.0,39.2,66,30.12,6.2,WNW,13.8,-,N/A,,Partly Cloudy,290,2013-05-22 06:50:00
8:20 AM,50.0,37.4,62,30.12,6.2,WNW,13.8,-,N/A,,Partly Cloudy,300,2013-05-22 07:20:00
8:50 AM,50.0,37.4,62,30.12,6.2,WNW,15.0,-,N/A,,Scattered Clouds,290,2013-05-22 07:50:00
9:20 AM,51.8,37.4,58,30.12,6.2,WNW,15.0,-,N/A,,Scattered Clouds,300,2013-05-22 08:20:00
9:50 AM,53.6,37.4,54,30.12,6.2,WNW,12.7,-,N/A,,Scattered Clouds,290,2013-05-22 08:50:00
10:20 AM,53.6,37.4,54,30.12,6.2,West,12.7,-,N/A,,Scattered Clouds,280,2013-05-22 09:20:00
10:50 AM,51.8,35.6,54,30.09,6.2,WNW,15.0,-,N/A,,Scattered Clouds,290,2013-05-22 09:50:00
11:20 AM,53.6,35.6,51,30.09,6.2,West,11.5,-,N/A,,Scattered Clouds,280,2013-05-22 10:20:00
11:50 AM,55.4,35.6,47,30.09,6.2,WNW,16.1,-,N/A,,Scattered Clouds,290,2013-05-22 10:50:00
12:20 PM,55.4,35.6,47,30.09,-9999.0,WNW,13.8,-,N/A,,Clear,290,2013-05-22 11:20:00
12:50 PM,55.4,37.4,51,30.09,6.2,NW,18.4,-,N/A,,Partly Cloudy,310,2013-05-22 11:50:00
1:20 PM,55.4,35.6,47,30.09,6.2,WNW,19.6,-,N/A,,Partly Cloudy,300,2013-05-22 12:20:00
1:50 PM,55.4,33.8,44,30.09,6.2,WNW,20.7,-,N/A,,Partly Cloudy,300,2013-05-22 12:50:00
2:20 PM,55.4,35.6,47,30.09,6.2,WNW,21.9,-,N/A,,Scattered Clouds,300,2013-05-22 13:20:00
2:50 PM,55.4,33.8,44,30.09,6.2,NW,20.7,-,N/A,,Scattered Clouds,310,2013-05-22 13:50:00
3:20 PM,55.4,35.6,47,30.09,6.2,WNW,21.9,-,N/A,,Scattered Clouds,300,2013-05-22 14:20:00
3:50 PM,55.4,33.8,44,30.09,6.2,WNW,20.7,-,N/A,,Scattered Clouds,290,2013-05-22 14:50:00
4:20 PM,55.4,33.8,44,30.06,6.2,WNW,20.7,-,N/A,,Scattered Clouds,300,2013-05-22 15:20:00
4:50 PM,53.6,33.8,47,30.06,6.2,WNW,23.0,-,N/A,,Scattered Clouds,300,2013-05-22 15:50:00
5:20 PM,53.6,32.0,44,30.06,6.2,WNW,19.6,-,N/A,,Scattered Clouds,290,2013-05-22 16:20:00
5:50 PM,53.6,37.4,54,30.06,6.2,West,15.0,-,N/A,,Scattered Clouds,270,2013-05-22 16:50:00
6:20 PM,50.0,39.2,66,30.06,6.2,WNW,13.8,-,N/A,Rain,Light Rain,290,2013-05-22 17:20:00
6:50 PM,46.4,39.2,76,30.06,6.2,WNW,17.3,28.8,N/A,Rain,Light Rain Showers,300,2013-05-22 17:50:00
7:20 PM,48.2,37.4,66,30.06,6.2,West,16.1,-,N/A,,Scattered Clouds,280,2013-05-22 18:20:00
7:50 PM,48.2,37.4,66,30.06,6.2,WNW,15.0,-,N/A,,Scattered Clouds,290,2013-05-22 18:50:00
8:20 PM,46.4,37.4,71,30.06,6.2,NW,11.5,-,N/A,,Scattered Clouds,320,2013-05-22 19:20:00
8:50 PM,42.8,37.4,81,30.06,6.2,NW,16.1,-,N/A,Rain,Light Rain Showers,310,2013-05-22 19:50:00
9:20 PM,42.8,35.6,76,30.06,6.2,WNW,13.8,-,N/A,,Scattered Clouds,290,2013-05-22 20:20:00
9:50 PM,42.8,37.4,81,30.06,6.2,WNW,10.4,-,N/A,,Scattered Clouds,300,2013-05-22 20:50:00
10:20 PM,42.8,35.6,76,30.06,6.2,WNW,16.1,-,N/A,,Scattered Clouds,300,2013-05-22 21:20:00
10:50 PM,41.0,35.6,81,30.04,6.2,WNW,16.1,-,N/A,,Partly Cloudy,290,2013-05-22 21:50:00
11:20 PM,41.0,35.6,81,30.04,6.2,NW,8.1,-,N/A,,Partly Cloudy,310,2013-05-22 22:20:00
11:50 PM,41.0,35.6,81,30.06,6.2,WNW,8.1,-,N/A,,Partly Cloudy,300,2013-05-22 22:50:00